Regional Weather Roundup
Issued by NWS

Home | Current Version | Previous Version | Graphics & Text | Print | Product List | Glossary On
Versions: 1 2 3 4 5 6 7 8 9 10 11 12 13 14 15 16 17 18 19 20 21 22 23 24 25 26 27 28 29 30 31 32 33 34 35 36 37 38 39 40 41 42 43 44 45 46 47 48 49 50
000
ASUS43 KLSX 310607
RWRMO

WEATHER SUMMARY FOR MISSOURI
NATIONAL WEATHER SERVICE SPRINGFIELD MO
100 AM CDT MON AUG 31 2015

NOTE: "FAIR" INDICATES FEW OR NO CLOUDS BELOW 12,000 FEET WITH NO
       SIGNIFICANT WEATHER AND/OR OBSTRUCTIONS TO VISIBILITY.
       CURRENT SKY AND/OR WEATHER CONDITIONS ARE NOT AVAILABLE FOR
       CHILLICOTHE AND FARMINGTON.

MOZ001>031-035>038-043-044-053-054-310700-
...NORTHERN AND WESTERN MISSOURI...

CITY           SKY/WX    TMP DP  RH WIND       PRES   REMARKS
KANSAS CTY INT FAIR      73  69  87 SE6       29.97S
6HR MIN TEMP:  73; 6HR MAX TEMP:  82;

KANSAS C DTWN  FAIR      76  71  85 E5        29.96S
6HR MIN TEMP:  76; 6HR MAX TEMP:  84;

LEE`S SUMMIT   FAIR      74  70  87 SE3       29.98S
6HR MIN TEMP:  74; 6HR MAX TEMP:  81;

ST JOSEPH      FAIR      68  67  96 CALM      29.96F
6HR MIN TEMP:  68; 6HR MAX TEMP:  82;

CHILLICOTHE      N/A     74  71  91 CALM      29.99S
6HR MIN TEMP:  74; 6HR MAX TEMP:  83;

KIRKSVILLE     FAIR      69  65  86 SE3       30.01F
6HR MIN TEMP:  68; 6HR MAX TEMP:  81;


$$
MOZ066>068-077>081-088>096-101>105-310700-
...SOUTHWEST MISSOURI...

CITY           SKY/WX    TMP DP  RH WIND       PRES   REMARKS
SPRINGFIELD    FAIR      75  69  81 SE8       30.00R
6HR MIN TEMP:  74; 6HR MAX TEMP:  82;

JOPLIN         FAIR      74  70  87 MISG      29.97S
6HR MIN TEMP:  74; 6HR MAX TEMP:  80;


$$
MOZ032>034-039>042-045>050-055>058-069>072-310700-
...CENTRAL MISSOURI...

CITY           SKY/WX    TMP DP  RH WIND       PRES   REMARKS
COLUMBIA       FAIR      73  71  93 SE5       30.00S
6HR MIN TEMP:  72; 6HR MAX TEMP:  82;

JEFFERSON CITY FAIR      72  70  93 SE5       29.99S
6HR MIN TEMP:  72; 6HR MAX TEMP:  83;

ROLLA          FAIR      73  70  90 S7        30.01S
6HR MIN TEMP:  72; 6HR MAX TEMP:  80;

SEDALIA        FAIR      73  70  90 SE3       30.00S
6HR MIN TEMP:  73; 6HR MAX TEMP:  83;

WHITEMAN AFB   CLEAR     73  73 100 S5        29.97S
WARRENSBURG    FAIR      73  70  88 CALM      29.98S
OSAGE BEACH    FAIR      73  68  83 SE3       30.01S

$$
MOZ051-052-059>065-310700-
...EAST CENTRAL MISSOURI...

CITY           SKY/WX    TMP DP  RH WIND       PRES   REMARKS
ST LOUIS INTL  FAIR      79  70  74 S8        30.01F
6HR MIN TEMP:  79; 6HR MAX TEMP:  84;

SPIRIT OF STL  FAIR      71  70  96 CALM      30.00S
6HR MIN TEMP:  71; 6HR MAX TEMP:  81;

ST CHARLES     FAIR      72  71  97 E5        30.00S
6HR MIN TEMP:  72; 6HR MAX TEMP:  82;


$$
MOZ072>076-082>087-097>100-106>115-310700-
...SOUTH CENTRAL AND SOUTHEAST MISSOURI...

CITY           SKY/WX    TMP DP  RH WIND       PRES   REMARKS
CAPE GIRARDEAU FAIR      68  67  96 CALM      30.04S
6HR MIN TEMP:  68; 6HR MAX TEMP:  80;

FARMINGTON     FAIR      72  70  94 S6        30.07S
6HR MIN TEMP:  72; 6HR MAX TEMP:  75;

POPLAR BLUFF   FAIR      69  67  93 CALM      30.02S
6HR MIN TEMP:  69; 6HR MAX TEMP:  82;

WEST PLAINS    FAIR      71  67  87 CALM      30.05S
6HR MIN TEMP:  70; 6HR MAX TEMP:  82;


$$



USA.gov is the U.S. government's official web portal to all federal, state and local government web resources and services.